Flag for Australia Weather past 2 weeks in Hobart, Tasmania, Australia

Now
57 °F

Passing clouds.


Feels Like: 53 °F
Forecast: 38 / 51 °F
Wind: 20 mph from West

Location: Hobart Airport

Current Time: Jul 4, 2015 at 1:38:37 PM

Latest Report: Jul 4, 2015 at 1:00 PM


Visibility: N/A

Pressure: 29.83 "Hg

Humidity: 36%

Dew point: 30 °F

Location of HobartLocation

Historic Weather in Hobart — Graph

°F

Hobart temperature yesterday

Maximum temperature yesterday: 54 °F (at 1:30 PM)
Minimum temperature yesterday: 34 °F (at 3:00 AM)
Average temperature yesterday: 45 °F

Past Weeks' High & Low Weather Summary

 TemperatureHumidityPressure
High61 °F (Jun 24, 11:00 AM)93% (Jun 20, 12:30 AM)30.33 "Hg (Jun 20, 12:30 AM)
Low34 °F (Jun 20, 8:00 AM)36% (Jul 4, 12:00 PM)29.65 "Hg (Jul 1, 6:30 PM)
Average49 °F65%30.11 "Hg
* Reported Jun 19 12:00 Noon — Jul 4 12:30 PM, Hobart, Weather by CustomWeather, © 2015

Note: Actual official high and low records may vary slightly from our data, if they occured in-between our weather recording intervals... More about our weather records

Advertising

Hobart weather history for previous 24 hours

 ConditionsComfort  
Time TempWeatherWind HumidityBarometerVisibility
12:30 PM
Sat, Jul 4
57 °FPassing clouds.21 mph36%29.83 "HgN/A
12:00 PM57 °FPassing clouds.18 mph36%29.83 "HgN/A
11:30 AM57 °FPassing clouds.17 mph41%29.86 "HgN/A
11:00 AM57 °FPassing clouds.20 mph41%29.86 "HgN/A
10:00 AM57 °FPassing clouds.17 mph48%29.83 "HgN/A
9:30 AM57 °FPassing clouds.16 mph51%29.83 "HgN/A
9:00 AM55 °FScattered clouds.15 mph63%29.83 "HgN/A
8:30 AM54 °FScattered clouds.5 mph67%29.80 "HgN/A
8:00 AM54 °FScattered clouds.12 mph67%29.80 "HgN/A
7:30 AM54 °FScattered showers. Scattered clouds.14 mph67%29.80 "HgN/A
7:00 AM50 °FScattered showers. Scattered clouds.6 mph82%29.80 "HgN/A
6:30 AM48 °FPassing clouds.6 mph87%29.80 "HgN/A
6:00 AM48 °FPassing clouds.8 mph87%29.80 "HgN/A
5:00 AM50 °FPassing clouds.9 mph71%29.77 "HgN/A
4:30 AM50 °FPassing clouds.9 mph67%29.77 "HgN/A
4:00 AM50 °FPassing clouds.10 mph67%29.77 "HgN/A
3:30 AM48 °FPassing clouds.9 mph71%29.80 "HgN/A
3:00 AM50 °FPassing clouds.13 mph67%29.80 "HgN/A
2:30 AM50 °FPassing clouds.12 mph67%29.83 "HgN/A
2:00 AM50 °FPassing clouds.12 mph62%29.83 "HgN/A
1:30 AM50 °FPassing clouds.10 mph62%29.83 "HgN/A
1:00 AM50 °FPassing clouds.15 mph62%29.83 "HgN/A
12:30 AM50 °FPassing clouds.14 mph58%29.86 "HgN/A
12:00 AM50 °FPassing clouds.16 mph58%29.89 "HgN/A
11:30 PM
Fri, Jul 3
50 °FPassing clouds.16 mph58%29.89 "HgN/A
11:00 PM48 °FPassing clouds.14 mph62%29.89 "HgN/A
10:30 PM48 °FPassing clouds.16 mph58%29.92 "HgN/A
10:00 PM48 °FPassing clouds.15 mph58%29.92 "HgN/A
9:30 PM48 °FPassing clouds.21 mph58%29.92 "HgN/A
9:00 PM48 °FPassing clouds.18 mph62%29.95 "HgN/A
8:30 PM48 °FPassing clouds.17 mph62%29.95 "HgN/A
8:00 PM48 °FPassing clouds.13 mph62%29.95 "HgN/A
7:30 PM48 °FPassing clouds.10 mph58%29.98 "HgN/A
7:00 PM48 °FPassing clouds.17 mph62%29.98 "HgN/A
6:30 PM48 °FPassing clouds.14 mph58%29.98 "HgN/A
6:00 PM48 °FPassing clouds.12 mph62%29.98 "HgN/A
5:30 PM50 °FPassing clouds.13 mph58%29.98 "HgN/A
5:00 PM50 °FPassing clouds.14 mph54%29.98 "HgN/A
4:30 PM52 °FPassing clouds.12 mph50%29.98 "HgN/A
4:00 PM50 °FPassing clouds.7 mph54%30.01 "HgN/A
3:00 PM52 °FPartly sunny.14 mph50%30.01 "HgN/A
2:30 PM54 °FScattered clouds.13 mph47%30.04 "HgN/A
2:00 PM54 °FScattered clouds.14 mph47%30.04 "HgN/A
1:30 PM54 °FScattered clouds.10 mph47%30.07 "HgN/A
1:00 PM52 °FPassing clouds.14 mph50%30.07 "HgN/A
Weather by CustomWeather, © 2015

See weather overviewHow to use our weather pages